Погода в Илиуполи

Греция     37°56′00″N   23°45′20″E
темп.,
°C
ветер,
м/с
пор.,
м/с
влажн.,
%
обл.,
%
осадки,
мм/ч
давл.,
гПа
погр.,
м
18 апреля, вс
вс1800:00+14ссв2282100 0.0 101163
03:00+13всв2283100 0.0 101130
06:00+13св1185100 0.0 101117
09:00+15юз1174100 0.0 1012294
12:00+18юз2363100 0.0 1012491
15:00+20зюз2254100 0.0 1012573
18:00+18ююз4567100 0.2 1013553
21:00+16ююз2278100 0.2 1013107
19 апреля, пн
пн1900:00+15юв1190100 0.0 101357
03:00+13зсз11910 0.0 101212
06:00+12с1186100 0.0 101111
09:00+15юз1265100 0.0 1012227
12:00+19юз57455 0.0 10111288
15:00+19юз67424 0.0 10101472
18:00+19з811340 0.0 10091858
21:00+14з69480 0.0 1010491
20 апреля, вт
вт2000:00+12з58580 0.0 1011435
03:00+11з46600 0.0 1011270
06:00+10з45670 0.0 1012261
09:00+13з46550 0.0 1014778
12:00+17з55385 0.0 10141571
15:00+19з87302 0.0 10141926
18:00+16юз44455 0.0 1015735
21:00+14зюз35485 0.0 1015224
21 апреля, ср
ср2100:00+12зсз23545 0.0 1017113
03:00+11зсз12613 0.0 101757
06:00+10ссз226662 0.0 101739
09:00+14зсз11529 0.0 1019255
12:00+18ююз323879 0.0 10191454
15:00+20юз652658 0.0 10181892
18:00+17ююз54422 0.0 1019679
21:00+14ююз11550 0.0 1020103
22 апреля, чт
чт2200:00+13зюз116054 0.0 102058
03:00+11сз1162100 0.0 102012
06:00+11сз116098 0.0 102018
09:00+15св01425 0.0 1021258
12:00+19ююз323313 0.0 10211365
15:00+20ююз533217 0.0 10211466
18:00+19ююз433792 0.0 1020909
21:00+15юз125598 0.0 1021101